Location: Ostrava
(49.8330°N, 18.2830°E)
Time: 17:26:38
(UTC+01:00)

Iridium 7 - Visible Passes

Search period start: 21 November 2014 00:00
Search period end: 01 December 2014 00:00
Orbit: 776 x 779 km, 86.4° (Epoch: 20 November)

Date Brightness Start Highest point End Pass type
(mag) Time Alt. Az. Time Alt. Az. Time Alt. Az.
21 Nov 8.4 05:03:05 10° NE 05:05:23 13° ENE 05:07:40 10° E visible
22 Nov 6.7 06:08:23 10° N 06:13:25 46° E 06:18:25 10° SSE visible
23 Nov 7.6 05:35:11 10° NNE 05:39:39 28° ENE 05:44:06 10° SE visible
24 Nov 8.2 05:02:20 10° NNE 05:05:46 17° ENE 05:09:10 10° ESE visible
25 Nov 8.7 04:31:00 10° NE 04:31:43 10° ENE 04:32:26 10° ENE visible
25 Nov 6.1 06:08:23 10° N 06:13:35 64° E 06:18:45 10° SSE visible
26 Nov 7.0 05:35:02 10° N 05:39:54 38° ENE 05:44:43 10° SE visible
26 Nov 7.6 18:36:22 10° S 18:37:01 14° S 18:37:01 14° S visible
27 Nov 7.8 05:01:57 10° NNE 05:06:05 23° ENE 05:10:12 10° SE visible
27 Nov 5.7 06:42:05 10° NNW 06:47:11 56° W 06:52:15 10° SSW visible
27 Nov 7.1 18:03:18 10° SSE 18:04:58 20° SE 18:04:58 20° SE visible
27 Nov 7.9 19:44:16 10° SW 19:45:32 16° SW 19:45:32 16° SW visible
28 Nov 8.4 04:29:22 10° NE 04:32:08 14° ENE 04:34:53 10° E visible
28 Nov 5.6 06:08:27 10° N 06:13:42 87° E 06:18:55 10° S visible
28 Nov 6.9 17:30:45 10° SE 17:33:00 20° ESE 17:33:00 20° ESE visible
28 Nov 6.6 19:10:06 10° SSW 19:13:34 39° SW 19:13:34 39° SW visible
29 Nov 6.4 05:34:59 10° N 05:40:05 52° E 05:45:09 10° SSE visible
29 Nov 7.1 16:58:58 10° ESE 17:01:08 14° E 17:01:08 14° E visible
29 Nov 5.4 18:36:22 10° S 18:41:34 89° W 18:41:42 85° N visible
29 Nov 8.2 20:20:15 10° W 20:22:18 14° WNW 20:22:18 14° WNW visible
30 Nov 7.3 05:01:43 10° NNE 05:06:21 31° ENE 05:10:57 10° SE visible
30 Nov 6.0 06:42:20 10° NNW 06:47:11 40° W 06:52:00 10° SSW visible
30 Nov 5.5 18:03:02 10° SSE 18:08:05 54° E 18:09:59 35° NNE visible
30 Nov 7.6 19:45:00 10° SW 19:49:10 24° WNW 19:50:35 21° NW visible
